Time,TemperatureF,DewpointF,PressureIn,WindDirection,WindDirectionDegrees,WindSpeedMPH,WindSpeedGustMPH,Humidity,HourlyPrecipIn,Conditions,Clouds,dailyrainin,SolarRadiationWatts/m^2,SoftwareType,DateUTC
2013-06-17 00:02:00,55.0,51.0,-100.00,WSW,256,4.0,6.0,85,0.00,,,0.01,0.000000,,2013-06-17 04:02:00,
2013-06-17 00:12:00,56.0,50.0,-100.00,South,177,3.0,7.0,81,0.00,,,-99.99,0.000000,,2013-06-17 04:12:00,
2013-06-17 00:34:00,56.0,50.0,-100.00,South,177,3.0,7.0,81,0.00,,,-99.99,0.000000,,2013-06-17 04:34:00,
2013-06-17 00:43:00,56.0,50.0,-100.00,South,177,3.0,7.0,81,0.00,,,-99.99,0.000000,,2013-06-17 04:43:00,
2013-06-17 00:53:00,56.0,50.0,-100.00,South,177,3.0,7.0,81,0.00,,,-99.99,0.000000,,2013-06-17 04:53:00,
2013-06-17 01:02:00,56.0,50.0,-100.00,South,177,3.0,7.0,81,0.00,,,-99.99,0.000000,,2013-06-17 05:02:00,
2013-06-17 01:12:00,53.0,50.0,-100.00,North,355,4.0,10.0,90,0.00,,,0.01,0.000000,,2013-06-17 05:12:00,
2013-06-17 01:33:00,53.0,50.0,-100.00,North,355,4.0,10.0,90,0.00,,,0.01,0.000000,,2013-06-17 05:33:00,
2013-06-17 01:44:00,53.0,50.0,-100.00,North,355,4.0,10.0,90,0.00,,,0.01,0.000000,,2013-06-17 05:44:00,
2013-06-17 01:53:00,53.0,50.0,-100.00,North,355,4.0,10.0,90,0.00,,,0.01,0.000000,,2013-06-17 05:53:00,
2013-06-17 02:02:00,53.0,50.0,-100.00,North,355,4.0,10.0,90,0.00,,,0.01,0.000000,,2013-06-17 06:02:00,
2013-06-17 02:12:00,52.0,51.0,-100.00,WNW,298,4.0,8.0,96,0.00,,,0.01,0.000000,,2013-06-17 06:12:00,
2013-06-17 02:33:00,52.0,51.0,-100.00,WNW,298,4.0,8.0,96,0.00,,,0.01,0.000000,,2013-06-17 06:33:00,
2013-06-17 02:43:00,52.0,51.0,-100.00,WNW,298,4.0,8.0,96,0.00,,,0.01,0.000000,,2013-06-17 06:43:00,
2013-06-17 02:53:00,52.0,51.0,-100.00,WNW,298,4.0,8.0,96,0.00,,,0.01,0.000000,,2013-06-17 06:53:00,
2013-06-17 03:02:00,52.0,51.0,-100.00,WNW,298,4.0,8.0,96,0.00,,,0.01,0.000000,,2013-06-17 07:02:00,
2013-06-17 03:43:00,53.0,51.0,-100.00,North,352,3.0,8.0,94,0.00,,,0.01,0.000000,,2013-06-17 07:43:00,
2013-06-17 03:53:00,53.0,51.0,-100.00,North,352,3.0,8.0,94,0.00,,,0.01,0.000000,,2013-06-17 07:53:00,
2013-06-17 04:02:00,53.0,51.0,-100.00,North,352,3.0,8.0,94,0.00,,,0.01,0.000000,,2013-06-17 08:02:00,
2013-06-17 04:11:00,53.0,51.0,-100.00,North,352,3.0,8.0,94,0.00,,,0.01,0.000000,,2013-06-17 08:11:00,
2013-06-17 04:34:00,52.0,50.0,-100.00,North,2,1.0,5.0,94,0.00,,,0.01,0.000000,,2013-06-17 08:34:00,
2013-06-17 04:43:00,52.0,50.0,-100.00,North,2,1.0,5.0,94,0.00,,,0.01,0.000000,,2013-06-17 08:43:00,
2013-06-17 04:53:00,52.0,50.0,-100.00,North,2,1.0,5.0,94,0.00,,,0.01,0.000000,,2013-06-17 08:53:00,
2013-06-17 05:02:00,52.0,50.0,-100.00,North,2,1.0,5.0,94,0.00,,,0.01,0.000000,,2013-06-17 09:02:00,
2013-06-17 05:11:00,52.0,50.0,-100.00,North,2,1.0,5.0,94,0.00,,,0.01,0.000000,,2013-06-17 09:11:00,
2013-06-17 05:12:00,51.0,50.0,-100.00,NNE,15,2.0,5.0,96,0.00,,,0.01,0.000000,,2013-06-17 09:12:00,
2013-06-17 05:34:00,51.0,50.0,-100.00,NNE,15,2.0,5.0,96,0.00,,,0.01,0.000000,,2013-06-17 09:34:00,
2013-06-17 05:44:00,51.0,50.0,-100.00,NNE,15,2.0,5.0,96,0.00,,,0.01,0.000000,,2013-06-17 09:44:00,
2013-06-17 05:53:00,51.0,50.0,-100.00,NNE,15,2.0,5.0,96,0.00,,,0.01,0.000000,,2013-06-17 09:53:00,
2013-06-17 06:02:00,51.0,50.0,-100.00,NNE,15,2.0,5.0,96,0.00,,,0.01,0.000000,,2013-06-17 10:02:00,
2013-06-17 06:12:00,49.0,48.0,-100.00,North,352,1.0,4.0,97,0.00,,,0.01,3.000000,,2013-06-17 10:12:00,
2013-06-17 06:33:00,49.0,48.0,-100.00,North,352,1.0,4.0,97,0.00,,,0.01,3.000000,,2013-06-17 10:33:00,
2013-06-17 06:43:00,49.0,48.0,-100.00,North,352,1.0,4.0,97,0.00,,,0.01,3.000000,,2013-06-17 10:43:00,
2013-06-17 06:54:00,49.0,48.0,-100.00,North,352,1.0,4.0,97,0.00,,,0.01,3.000000,,2013-06-17 10:54:00,
2013-06-17 07:02:00,49.0,48.0,-100.00,North,352,1.0,4.0,97,0.00,,,0.01,3.000000,,2013-06-17 11:02:00,
2013-06-17 07:12:00,47.0,46.0,-100.00,NNE,13,3.0,8.0,96,0.00,,,0.01,33.000000,,2013-06-17 11:12:00,
2013-06-17 07:33:00,47.0,46.0,-100.00,NNE,13,3.0,8.0,96,0.00,,,0.01,33.000000,,2013-06-17 11:33:00,
2013-06-17 07:43:00,47.0,46.0,-100.00,NNE,13,3.0,8.0,96,0.00,,,0.01,33.000000,,2013-06-17 11:43:00,
2013-06-17 07:53:00,47.0,46.0,-100.00,NNE,13,3.0,8.0,96,0.00,,,0.01,33.000000,,2013-06-17 11:53:00,
2013-06-17 08:02:00,47.0,46.0,-100.00,NNE,13,3.0,8.0,96,0.00,,,0.01,33.000000,,2013-06-17 12:02:00,
2013-06-17 08:12:00,46.0,44.0,-100.00,North,351,4.0,9.0,94,0.00,,,0.01,82.000000,,2013-06-17 12:12:00,
2013-06-17 08:33:00,46.0,44.0,-100.00,North,351,4.0,9.0,94,0.00,,,0.01,82.000000,,2013-06-17 12:33:00,
2013-06-17 08:43:00,46.0,44.0,-100.00,North,351,4.0,9.0,94,0.00,,,0.01,82.000000,,2013-06-17 12:43:00,
2013-06-17 08:53:00,46.0,44.0,-100.00,North,351,4.0,9.0,94,0.00,,,0.01,82.000000,,2013-06-17 12:53:00,
2013-06-17 09:01:00,46.0,44.0,-100.00,North,351,4.0,9.0,94,0.00,,,0.01,82.000000,,2013-06-17 13:01:00,
2013-06-17 09:12:00,47.0,44.0,-100.00,NE,36,4.0,12.0,90,0.00,,,0.00,141.000000,,2013-06-17 13:12:00,
2013-06-17 09:33:00,47.0,44.0,-100.00,NE,36,4.0,12.0,90,0.00,,,0.00,141.000000,,2013-06-17 13:33:00,
2013-06-17 09:43:00,47.0,44.0,-100.00,NE,36,4.0,12.0,90,0.00,,,0.00,141.000000,,2013-06-17 13:43:00,
2013-06-17 09:53:00,47.0,44.0,-100.00,NE,36,4.0,12.0,90,0.00,,,0.00,141.000000,,2013-06-17 13:53:00,
2013-06-17 10:02:00,47.0,44.0,-100.00,NE,36,4.0,12.0,90,0.00,,,0.00,141.000000,,2013-06-17 14:02:00,
2013-06-17 10:12:00,49.0,46.0,-100.00,NE,50,4.0,8.0,88,0.00,,,0.00,236.000000,,2013-06-17 14:12:00,
2013-06-17 10:34:00,49.0,46.0,-100.00,NE,50,4.0,8.0,88,0.00,,,0.00,236.000000,,2013-06-17 14:34:00,
2013-06-17 10:44:00,49.0,46.0,-100.00,NE,50,4.0,8.0,88,0.00,,,0.00,236.000000,,2013-06-17 14:44:00,
2013-06-17 10:53:00,49.0,46.0,-100.00,NE,50,4.0,8.0,88,0.00,,,0.00,236.000000,,2013-06-17 14:53:00,
2013-06-17 11:02:00,49.0,46.0,-100.00,NE,50,4.0,8.0,88,0.00,,,0.00,236.000000,,2013-06-17 15:02:00,
2013-06-17 11:12:00,50.0,45.0,-100.00,North,10,4.0,10.0,83,0.00,,,0.00,304.000000,,2013-06-17 15:12:00,
2013-06-17 11:33:00,50.0,45.0,-100.00,North,10,4.0,10.0,83,0.00,,,0.00,304.000000,,2013-06-17 15:33:00,
2013-06-17 11:43:00,50.0,45.0,-100.00,North,10,4.0,10.0,83,0.00,,,0.00,304.000000,,2013-06-17 15:43:00,
2013-06-17 11:53:00,50.0,45.0,-100.00,North,10,4.0,10.0,83,0.00,,,0.00,304.000000,,2013-06-17 15:53:00,
2013-06-17 12:02:00,50.0,45.0,-100.00,North,10,4.0,10.0,83,0.00,,,0.00,304.000000,,2013-06-17 16:02:00,
2013-06-17 12:12:00,51.0,46.0,-100.00,NE,36,3.0,8.0,83,0.00,,,0.00,269.000000,,2013-06-17 16:12:00,
2013-06-17 12:33:00,51.0,46.0,-100.00,NE,36,3.0,8.0,83,0.00,,,0.00,269.000000,,2013-06-17 16:33:00,
2013-06-17 12:43:00,51.0,46.0,-100.00,NE,36,3.0,8.0,83,0.00,,,0.00,269.000000,,2013-06-17 16:43:00,
2013-06-17 12:54:00,51.0,46.0,-100.00,NE,36,3.0,8.0,83,0.00,,,0.00,269.000000,,2013-06-17 16:54:00,
2013-06-17 13:02:00,51.0,46.0,-100.00,NE,36,3.0,8.0,83,0.00,,,0.00,269.000000,,2013-06-17 17:02:00,
2013-06-17 13:12:00,51.0,45.0,-100.00,NNE,16,4.0,9.0,79,0.00,,,0.00,317.000000,,2013-06-17 17:12:00,
2013-06-17 13:33:00,51.0,45.0,-100.00,NNE,16,4.0,9.0,79,0.00,,,0.00,317.000000,,2013-06-17 17:33:00,
2013-06-17 13:43:00,51.0,45.0,-100.00,NNE,16,4.0,9.0,79,0.00,,,0.00,317.000000,,2013-06-17 17:43:00,
2013-06-17 13:52:00,51.0,45.0,-100.00,NNE,16,4.0,9.0,79,0.00,,,0.00,317.000000,,2013-06-17 17:52:00,
2013-06-17 14:02:00,51.0,45.0,-100.00,NNE,16,4.0,9.0,79,0.00,,,0.00,317.000000,,2013-06-17 18:02:00,
2013-06-17 14:33:00,55.0,46.0,-100.00,NE,43,4.0,9.0,71,0.00,,,0.00,475.000000,,2013-06-17 18:33:00,
2013-06-17 14:43:00,55.0,46.0,-100.00,NE,43,4.0,9.0,71,0.00,,,0.00,475.000000,,2013-06-17 18:43:00,
2013-06-17 14:53:00,55.0,46.0,-100.00,NE,43,4.0,9.0,71,0.00,,,0.00,475.000000,,2013-06-17 18:53:00,
2013-06-17 15:02:00,55.0,46.0,-100.00,NE,43,4.0,9.0,71,0.00,,,0.00,475.000000,,2013-06-17 19:02:00,
2013-06-17 15:11:00,55.0,46.0,-100.00,NE,43,4.0,9.0,71,0.00,,,0.00,475.000000,,2013-06-17 19:11:00,
2013-06-17 15:33:00,56.0,45.0,-100.00,NE,38,4.0,8.0,67,0.00,,,0.00,565.000000,,2013-06-17 19:33:00,
2013-06-17 15:43:00,56.0,45.0,-100.00,NE,38,4.0,8.0,67,0.00,,,0.00,565.000000,,2013-06-17 19:43:00,
2013-06-17 15:54:00,56.0,45.0,-100.00,NE,38,4.0,8.0,67,0.00,,,0.00,565.000000,,2013-06-17 19:54:00,
2013-06-17 16:02:00,56.0,45.0,-100.00,NE,38,4.0,8.0,67,0.00,,,0.00,565.000000,,2013-06-17 20:02:00,
2013-06-17 16:11:00,56.0,45.0,-100.00,NE,38,4.0,8.0,67,0.00,,,0.00,565.000000,,2013-06-17 20:11:00,
2013-06-17 16:12:00,56.0,45.0,-100.00,NE,38,4.0,9.0,66,0.00,,,0.00,534.000000,,2013-06-17 20:12:00,
2013-06-17 16:34:00,56.0,45.0,-100.00,NE,38,4.0,9.0,66,0.00,,,0.00,534.000000,,2013-06-17 20:34:00,
2013-06-17 16:43:00,56.0,45.0,-100.00,NE,38,4.0,9.0,66,0.00,,,0.00,534.000000,,2013-06-17 20:43:00,
2013-06-17 16:52:00,56.0,45.0,-100.00,NE,38,4.0,9.0,66,0.00,,,0.00,534.000000,,2013-06-17 20:52:00,
2013-06-17 17:01:00,56.0,45.0,-100.00,NE,38,4.0,9.0,66,0.00,,,0.00,534.000000,,2013-06-17 21:01:00,
2013-06-17 18:53:00,58.0,44.0,-100.00,NE,53,4.0,11.0,59,0.00,,,0.00,604.000000,,2013-06-17 22:53:00,
2013-06-17 19:02:00,58.0,44.0,-100.00,NE,53,4.0,11.0,59,0.00,,,0.00,604.000000,,2013-06-17 23:02:00,
2013-06-17 19:11:00,58.0,44.0,-100.00,NE,53,4.0,11.0,59,0.00,,,0.00,604.000000,,2013-06-17 23:11:00,
2013-06-17 19:12:00,56.0,44.0,-100.00,East,83,4.0,10.0,63,0.00,,,0.00,390.000000,,2013-06-17 23:12:00,
2013-06-17 19:33:00,56.0,44.0,-100.00,East,83,4.0,10.0,63,0.00,,,0.00,390.000000,,2013-06-17 23:33:00,
2013-06-17 19:43:00,56.0,44.0,-100.00,East,83,4.0,10.0,63,0.00,,,0.00,390.000000,,2013-06-17 23:43:00,
2013-06-17 19:53:00,56.0,44.0,-100.00,East,83,4.0,10.0,63,0.00,,,0.00,390.000000,,2013-06-17 23:53:00,
2013-06-17 20:01:00,56.0,44.0,-100.00,East,83,4.0,10.0,63,0.00,,,0.00,390.000000,,2013-06-18 00:01:00,
2013-06-17 20:43:00,55.0,42.0,-100.00,NE,54,3.0,10.0,61,0.00,,,-99.99,302.000000,,2013-06-18 00:43:00,
2013-06-17 20:52:00,55.0,42.0,-100.00,NE,54,3.0,10.0,61,0.00,,,-99.99,302.000000,,2013-06-18 00:52:00,
2013-06-17 21:01:00,55.0,42.0,-100.00,NE,54,3.0,10.0,61,0.00,,,-99.99,302.000000,,2013-06-18 01:01:00,
2013-06-17 21:11:00,55.0,42.0,-100.00,NE,54,3.0,10.0,61,0.00,,,-99.99,302.000000,,2013-06-18 01:11:00,
2013-06-17 21:34:00,50.0,41.0,-100.00,NE,40,3.0,7.0,71,0.00,,,0.00,130.000000,,2013-06-18 01:34:00,
2013-06-17 21:44:00,50.0,41.0,-100.00,NE,40,3.0,7.0,71,0.00,,,0.00,130.000000,,2013-06-18 01:44:00,
2013-06-17 21:53:00,50.0,41.0,-100.00,NE,40,3.0,7.0,71,0.00,,,0.00,130.000000,,2013-06-18 01:53:00,
2013-06-17 22:02:00,50.0,41.0,-100.00,NE,40,3.0,7.0,71,0.00,,,0.00,130.000000,,2013-06-18 02:02:00,
2013-06-17 22:11:00,50.0,41.0,-100.00,NE,40,3.0,7.0,71,0.00,,,0.00,130.000000,,2013-06-18 02:11:00,
2013-06-17 22:12:00,43.0,40.0,-100.00,East,97,0.0,8.0,88,0.00,,,0.00,8.000000,,2013-06-18 02:12:00,
2013-06-17 22:34:00,43.0,40.0,-100.00,East,97,0.0,8.0,88,0.00,,,0.00,8.000000,,2013-06-18 02:34:00,
2013-06-17 22:43:00,43.0,40.0,-100.00,East,97,0.0,8.0,88,0.00,,,0.00,8.000000,,2013-06-18 02:43:00,
2013-06-17 22:53:00,43.0,40.0,-100.00,East,97,0.0,8.0,88,0.00,,,0.00,8.000000,,2013-06-18 02:53:00,
2013-06-17 23:02:00,43.0,40.0,-100.00,East,97,0.0,8.0,88,0.00,,,0.00,8.000000,,2013-06-18 03:02:00,
2013-06-17 23:12:00,41.0,39.0,-100.00,WNW,289,0.0,2.0,93,0.00,,,0.00,0.000000,,2013-06-18 03:12:00,
2013-06-17 23:34:00,41.0,39.0,-100.00,WNW,289,0.0,2.0,93,0.00,,,0.00,0.000000,,2013-06-18 03:34:00,
2013-06-17 23:43:00,41.0,39.0,-100.00,WNW,289,0.0,2.0,93,0.00,,,0.00,0.000000,,2013-06-18 03:43:00,
2013-06-17 23:53:00,41.0,39.0,-100.00,WNW,289,0.0,2.0,93,0.00,,,0.00,0.000000,,2013-06-18 03:53:00,